Tracking 19574 objects as of 16-Feb-2019
HD Live streaming from Space Station
objects crossing your sky now

MOLNIYA 1-80

Track MOLNIYA 1-80 now!
MOLNIYA 1-80 is classified as:


NORAD ID: 21118
Int'l Code: 1991-012A
Perigee: 1,978.9 km
Apogee: 37,590.0 km
Inclination: 63.6 °
Period: 701.6 minutes
Semi major axis: 26155 km
RCS: 6.3095 m2 (large)
Launch date: February 15, 1991
Source: Commonwealth of Independent States (former USSR) (CIS)
Launch site: PLESETSK MISSILE AND SPACE COMPLEX (PKMTR)
aabbcc
Your satellite tracking list
Your tracking list is empty




NASA's NSSDC Master Catalog

Two Line Element Set (TLE):
1 21118U 91012A   19046.55567675  .00000306  00000-0  12705+0 0  9995
2 21118  63.5871 112.7570 6807591 289.2952  12.3848  2.05238663206000
Source of the keplerian elements: AFSPC